Find Starlink 5738

NORAD ID: 55573 Int'l Des: 2023-020 Owner: SPXS Country: US Constellation: starlink operational
LEOCIRCULAR

リアルタイム位置

3D地球を読み込み中...

Starlink 5738について

説明を読み込み中...

次回通過

Passes for default location (London). Set your location on the main map for personalized predictions.

高度履歴

Loading altitude history...

軌道要素

1 55573U 23020E 26125.91668981 -.00020215 00000-0 -72684-3 0 9998
2 55573 43.0010 45.3363 0001625 256.3844 189.8165 15.27588910 5802
Epoch: May 5, 2026 • Age: 8 hours

現在のステータス

高度 485.7 km
速度 7.63 km/s
衛星直下点 35.49°N, 143.05°E
打ち上げ日 Feb 12, 2023
運用期間 3.2 years
タイプ internet

技術仕様

分類 Payload
質量 305.00 kg
乾燥質量 290.00 kg
総質量 305.00 kg
長さ 0.20 m
直径 2.80 m
スパン 9.00 m
形状 Box + pan
製造者 SPXS
バスタイプ Starlink
フェーズステータス In Orbit
所有者/国 SPXS/US

Most Searched